Content
SEND FEEDBACK

Daily
Averages
Monthly
Summary
United States of America

DELTA, LOUISIANA


Home > North America > United States > Louisiana
Elevation: 274 feet     Latitude: 32 21N     Longitude: 090 51W

WEATHER
 
SELECT A DAY
Number of Records: 194,200;   Date Range: 7/1/96 - 8/30/14
 
SHARE

PRINT THIS DATA

[ ← Previous Day ]
WEATHER ALMANAC - JANUARY 31, 2013
[ Next Day → ]
[ °C ]   °F
Weather ElementAverageHighLow
Temperature48.3 °F60.1 °F (2:53 pm)30.9 °F (6:53 am)
Dewpoint28.9 °F32 °F (7:53 am)24.1 °F (11:53 am)
Humidity51.7 %89 % (6:53 am)25 % (2:53 pm)
Barometer30.25 in30.32 in (10:53 pm)30.20 in (1:53 am)
Wind Speed5.9 mph10.4 mph (11:53 am)
Weather ElementAverage
Visibility10 mi
Wind DirectionSSW (191 °)

Weather ElementTotal
Precipitation---
Heating Degree Days19.5 (Base 65)
Averaged from 21 records on January 31, 2013
WEATHER CONDITIONS BREAKOUT
WIND DIRECTION BREAKOUT
WEATHER BY HOUR - JANUARY 31, 2013
[ °C ]   °F
Local TimeTemperatureDewpointHumidityBarometerVisibilityWind DirectionWind SpeedGust SpeedPrecipitationEventsConditions
1:53 AM36.0 °F30.0 °F79 %30.20 in10.0 miSW (230°)4.6 mphClear
2:53 AM36.0 °F30.0 °F79 %30.20 in10.0 miSW (230°)4.6 mphClear
3:53 AM37.9 °F30.0 °F73 %30.21 in10.0 miSW (230°)3.5 mphClear
4:53 AM36.0 °F30.0 °F79 %30.20 in10.0 miWSW (250°)5.8 mphClear
5:53 AM34.0 °F30.0 °F85 %30.21 in10.0 miCalmClear
6:53 AM30.9 °F28.0 °F89 %30.22 in10.0 miSouth (180°)4.6 mphClear
7:53 AM37.9 °F32.0 °F79 %30.27 in10.0 miSSW (200°)3.5 mphClear
9:53 AM50.0 °F32.0 °F50 %30.31 in10.0 miVariable6.9 mphClear
10:53 AM53.1 °F30.9 °F43 %30.30 in10.0 miWSW (250°)9.2 mphClear
11:53 AM55.9 °F24.1 °F29 %30.29 in10.0 miWest (270°)10.4 mphClear
12:53 PM59.0 °F25.0 °F27 %30.26 in10.0 miWest (280°)9.2 mphClear
1:53 PM59.0 °F27.0 °F29 %30.24 in10.0 miVariable5.8 mphClear
2:53 PM60.1 °F24.1 °F25 %30.23 in10.0 miSouth (190°)6.9 mphClear
3:53 PM60.1 °F24.1 °F25 %30.21 in10.0 miSW (220°)8.1 mphClear
4:53 PM59.0 °F25.0 °F27 %30.22 in10.0 miSW (220°)5.8 mphClear
5:53 PM55.0 °F30.0 °F38 %30.23 in10.0 miSSW (200°)5.8 mphClear
6:53 PM52.0 °F30.0 °F43 %30.23 in10.0 miSouth (190°)5.8 mphClear
7:53 PM51.1 °F30.0 °F44 %30.26 in10.0 miSSW (210°)5.8 mphClear
8:53 PM51.1 °F30.9 °F46 %30.27 in10.0 miSSW (210°)6.9 mphClear
9:53 PM51.1 °F30.9 °F46 %30.30 in10.0 miSW (230°)6.9 mphClear
10:53 PM50.0 °F32.0 °F50 %30.32 in10.0 miSW (220°)4.6 mphClear
Hourly data recorded from KTVR, located miles away from Delta, Louisiana







STORIES FROM OUR PARTNERS